[[{"header":{"parameterUnit":"m.s-1","parameterCategory":1,"la1":30.2992,"la2":30.254,"lo1":-89.0895,"lo2":-89.0443,"dy":0.0025,"dx":0.0025,"nx":19,"ny":19,"refTime":"2026-05-24T21:00:00:Z","depth":0,"parameterNumber":2,"parameterNumberName":"U-component_of_WINDS"},"data":[0,0,0,-2.5068,-2.507,-2.5177,-2.5177,-2.5312,-2.5313,0,0,0,0,0,0,0,0,0,0,0,-2.5034,-2.5035,-2.5067,-2.507,-2.5177,-2.5177,-2.5312,-2.5313,0,0,0,0,0,0,0,0,0,0,0,-2.5034,-2.5035,-2.5036,-2.507,-2.5176,-2.5177,-2.5312,-2.5232,0,0,0,0,0,0,0,0,0,0,-2.5129,-2.5096,-2.5035,-2.5036,-2.5071,-2.5176,-2.5177,-2.5228,-2.5237,-2.5263,0,-2.5285,0,-2.5301,-2.5322,-2.5323,0,0,0,-2.5071,-2.5089,-2.5119,-2.5036,-2.5072,-2.5176,-2.5129,-2.5233,-2.5243,-2.5275,-2.5287,-2.5292,-2.5304,-2.5323,-2.5324,-2.5469,-2.547,0,0,-2.5066,-2.5053,-2.5112,-2.5125,-2.5108,-2.5125,-2.5132,-2.5239,-2.5252,-2.5288,-2.5295,-2.5306,-2.5324,-2.5325,-2.5469,-2.547,0,0,0,-2.5048,-2.5049,-2.5076,-2.512,-2.5139,-2.5129,-2.5136,-2.5247,-2.5257,-2.5297,-2.5307,-2.5325,-2.5326,-2.5468,-2.5469,-2.5487,0,0,0,-2.5044,-2.5038,-2.5074,-2.5067,-2.5137,-2.5194,-2.5142,-2.525,-2.5262,-2.5307,-2.5325,-2.5328,-2.5468,-2.5469,-2.5485,-2.5498,0,0,0,-2.5028,-2.5036,-2.5051,-2.5066,-2.5111,-2.5193,-2.5209,-2.5253,-2.5269,-2.5323,-2.5328,-2.5467,-2.5468,-2.5484,-2.5495,-2.5533,0,0,0,-2.5007,-2.5066,-2.5051,-2.5121,-2.511,-2.5203,-2.5208,-2.5278,-2.5327,-2.5325,-2.5468,-2.5469,-2.5483,-2.5494,-2.5531,-2.5563,-2.5574,0,0,-2.5074,-2.5073,-2.5115,-2.5106,-2.5197,-2.5188,-2.5283,-2.5339,-2.5356,-2.5431,-2.5435,-2.5486,-2.5495,-2.5533,-2.5645,-2.5655,0,0,0,-2.5132,-2.5162,-2.5189,-2.5235,-2.5279,-2.5319,-2.5362,-2.5384,-2.5448,-2.5392,-2.551,-2.5516,-2.5539,-2.5554,-2.5562,-2.5583,-2.5476,-2.5476,-2.5475,-2.5208,-2.5227,-2.5298,-2.533,-2.5374,-2.5418,-2.5456,-2.5493,-2.5498,-2.5526,-2.5548,-2.5614,-2.5632,-2.5638,-2.5659,-2.5567,-2.5567,-2.5567,-2.5567,-2.5308,-2.5353,-2.536,-2.5432,-2.5452,-2.5512,-2.5558,-2.556,-2.562,-2.5599,-2.562,-2.5595,-2.5648,-2.5667,-2.5568,-2.5568,-2.5568,-2.5568,-2.5568,-2.536,-2.5385,-2.541,-2.5478,-2.5529,-2.556,-2.5617,-2.5633,-2.5649,-2.5669,-2.5695,-2.5695,-2.5697,-2.568,-2.5681,-2.5681,-2.5681,-2.5681,-2.5681,-2.5404,-2.5431,-2.5477,-2.553,-2.5562,-2.5606,-2.5652,-2.5685,-2.5725,-2.5732,-2.5732,-2.5736,-2.5649,-2.5627,-2.5685,-2.5684,-2.5684,-2.5684,-2.5683,-2.5498,-2.548,-2.555,-2.5582,-2.5647,-2.5697,-2.5717,-2.5781,-2.581,-2.5838,-2.5838,-2.5771,-2.5772,-2.5766,-2.5748,-2.5833,-2.5833,-2.5833,-2.5833,-2.5542,-2.5544,-2.5621,-2.5671,-2.5722,-2.5748,-2.5829,-2.5866,-2.5901,-2.5921,-2.5911,-2.5889,-2.5882,-2.5886,-2.5878,-2.5861,-2.5973,-2.5974,-2.5974,-2.5602,-2.5609,-2.5674,-2.5708,-2.576,-2.5805,-2.5882,-2.594,-2.5977,-2.598,-2.5937,-2.5931,-2.5895,-2.5882,-2.5883,-2.5869,-2.5839,0,0]},{"header":{"parameterUnit":"m.s-1","parameterCategory":1,"la1":30.2992,"la2":30.254,"lo1":-89.0895,"lo2":-89.0443,"dy":0.0025,"dx":0.0025,"nx":19,"ny":19,"refTime":"2026-05-24T21:00:00:Z","depth":0,"parameterNumber":3,"parameterNumberName":"V-component_of_WINDS"},"data":[0,0,0,6.2419,6.2421,6.2498,6.2499,6.2605,6.2606,0,0,0,0,0,0,0,0,0,0,0,6.2403,6.2404,6.2419,6.2421,6.2498,6.2499,6.2605,6.2606,0,0,0,0,0,0,0,0,0,0,0,6.2403,6.2404,6.2405,6.2421,6.2498,6.2499,6.2604,6.2543,0,0,0,0,0,0,0,0,0,0,6.2466,6.2459,6.2404,6.2405,6.2422,6.2498,6.2499,6.254,6.2547,6.2574,0,6.2603,0,6.2606,6.2614,6.2614,0,0,0,6.2415,6.2454,6.2468,6.2406,6.2423,6.2498,6.2462,6.2543,6.2551,6.2583,6.2604,6.2608,6.2608,6.2615,6.2615,6.28,6.2801,0,0,6.241,6.242,6.2463,6.2474,6.2466,6.2459,6.2464,6.2548,6.257,6.2605,6.261,6.261,6.2615,6.2616,6.2799,6.2801,0,0,0,6.2402,6.2418,6.243,6.247,6.2483,6.2462,6.2467,6.2566,6.257,6.2611,6.2611,6.2616,6.2617,6.2798,6.28,6.2867,0,0,0,6.2399,6.2413,6.2428,6.2435,6.2482,6.2527,6.2484,6.2564,6.2573,6.2611,6.2616,6.2619,6.2797,6.2799,6.2862,6.2896,0,0,0,6.2396,6.2412,6.2427,6.2436,6.247,6.2525,6.2533,6.2566,6.2574,6.2614,6.2619,6.2796,6.2799,6.2858,6.2889,6.2947,0,0,0,6.2394,6.2484,6.2428,6.2529,6.2469,6.2568,6.2532,6.2604,6.2647,6.2617,6.2797,6.28,6.2857,6.2885,6.2943,6.2997,6.3021,0,0,6.2513,6.2499,6.2558,6.2509,6.2621,6.2555,6.2675,6.2703,6.2697,6.2765,6.277,6.2864,6.2889,6.2946,6.3154,6.3173,0,0,0,6.2599,6.2641,6.2668,6.2711,6.2737,6.2761,6.2771,6.2782,6.284,6.2735,6.2901,6.2916,6.2949,6.2973,6.299,6.3017,6.2812,6.2812,6.2812,6.2781,6.277,6.2866,6.2864,6.2906,6.2916,6.2948,6.2963,6.2938,6.2978,6.2997,6.3125,6.3155,6.3167,6.3195,6.3026,6.3027,6.3027,6.3027,6.2954,6.3011,6.2978,6.3059,6.3046,6.3112,6.3125,6.3105,6.3164,6.3109,6.3138,6.3078,6.3189,6.3212,6.3032,6.3031,6.3031,6.303,6.303,6.307,6.3095,6.3109,6.317,6.3218,6.3212,6.3271,6.3256,6.3243,6.3272,6.329,6.3289,6.3284,6.3282,6.3282,6.3283,6.3283,6.3283,6.3284,6.3184,6.3197,6.325,6.3286,6.3312,6.3343,6.3355,6.3379,6.3401,6.3386,6.3386,6.3356,6.3203,6.3163,6.329,6.3289,6.3288,6.3288,6.3287,6.336,6.3318,6.3399,6.3425,6.3466,6.3514,6.3496,6.3546,6.3564,6.3593,6.3558,6.3448,6.3431,6.3418,6.3385,6.3561,6.3561,6.3561,6.3561,6.3456,6.3448,6.3527,6.357,6.361,6.3602,6.3691,6.3701,6.3704,6.3713,6.3686,6.3642,6.363,6.362,6.3603,6.3572,6.3792,6.3792,6.3792,6.3563,6.3558,6.3637,6.3642,6.3674,6.37,6.3783,6.383,6.3825,6.3801,6.372,6.3711,6.3639,6.3617,6.3589,6.3563,6.3505,0,0]}]]